Tacoma, WA
on Wednesday, January 9, 2013

Wednesday
Previous Day Next Day
Daily Summary
 ActualAverage (KSEA)Record (KSEA)
Temperature
Mean Temperature °F 42°F  
Max Temperature 50°F 46°F 56°F (2003)
Min Temperature 32°F 37°F 13°F (1949)
Degree Days
Heating Degree Days 24 23  
Month to date heating degree days 215  
Since 1 July heating degree days 2153  
Cooling Degree Days 0 0  
Month to date cooling degree days 0  
Year to date cooling degree days 0  
Moisture
Dew Point 40°F   
Average Humidity 97    
Maximum Humidity 100    
Minimum Humidity 87    
Precipitation
Precipitation 0.81 in 0.19 in 2.83 in (1990)
Month to date precipitation 1.69  
Year to date precipitation 1.69  
Snow
Snow 0.00 in in 2.00 in (1963)
Month to date snowfall  
Since 1 July snowfall  
Snow Depth in   
Wind
Wind Speed 13 mph   
Max Wind Speed 20 mph   
Max Gust Speed 26 mph   
Visibility 9 miles   
Events Rain   

Key: T is trace of precipitation, MM is missing value
Source: NWS Daily Summary
Time(PST)TemperatureDew PointHumidity Pressure Visibility Wind DirectionWind SpeedGust SpeedPrecipitationEvents Conditions
12:43 AM 50.0°F 48.2°F 94% 29.75 in 10.0 miles SW 13.8 mph - N/A Rain Light Rain
12:58 AM 49.6°F 48.6°F 96% 29.78 in 9.0 miles SW 15.0 mph - 0.02 in Rain Light Rain
1:08 AM 50.0°F 48.2°F 94% 29.76 in 5.0 miles SW 18.4 mph 21.9 mph N/A Rain Light Rain
1:13 AM 50.0°F 48.2°F 94% 29.76 in 6.0 miles SSW 18.4 mph 21.9 mph N/A Rain Light Rain
1:14 AM 50.0°F 48.2°F 94% 29.76 in 6.0 miles SSW 19.6 mph 25.3 mph N/A   Overcast
1:19 AM 50.0°F 48.2°F 94% 29.76 in 7.0 miles SSW 16.1 mph 25.3 mph N/A Rain Light Rain
1:29 AM 48.2°F 48.2°F 100% 29.76 in 8.0 miles SSW 17.3 mph 24.2 mph N/A   Overcast
1:41 AM 48.2°F 48.2°F 100% 29.76 in 9.0 miles SSW 16.1 mph 26.5 mph N/A Rain Light Rain
1:58 AM 48.6°F 48.0°F 98% 29.75 in 6.0 miles SSW 13.8 mph - 0.10 in Rain Light Rain
2:08 AM 48.2°F 48.2°F 100% 29.73 in 10.0 miles SSW 10.4 mph - N/A   Overcast
2:12 AM 48.2°F 48.2°F 100% 29.73 in 10.0 miles SSW 10.4 mph - N/A Rain Light Rain
2:47 AM 48.2°F 46.4°F 93% 29.74 in 9.0 miles WNW 18.4 mph 21.9 mph N/A Rain Light Rain
2:58 AM 45.3°F 44.8°F 98% 29.75 in 9.0 miles WNW 12.7 mph 21.9 mph 0.03 in Rain Light Rain
3:21 AM 44.6°F 44.6°F 100% 29.74 in 6.0 miles WSW 6.9 mph - N/A Rain Light Rain
3:41 AM 42.8°F 42.8°F 100% 29.73 in 9.0 miles West 15.0 mph - N/A Rain Light Rain
3:51 AM 42.8°F 42.8°F 100% 29.73 in 8.0 miles WSW 12.7 mph - N/A Rain Light Rain
3:58 AM 42.8°F 42.1°F 97% 29.75 in 8.0 miles West 12.7 mph - 0.11 in Rain Light Rain
4:08 AM 42.8°F 41.0°F 93% 29.72 in 8.0 miles West 12.7 mph - N/A Rain Rain
4:58 AM 41.5°F 41.0°F 98% 29.73 in 9.0 miles WSW 10.4 mph - 0.09 in Rain Light Rain
5:13 AM 41.0°F 41.0°F 100% 29.70 in 6.0 miles SW 8.1 mph - N/A Rain Light Rain
5:43 AM 41.0°F 41.0°F 100% 29.70 in 6.0 miles SW 10.4 mph - N/A Rain Rain
5:58 AM 40.6°F 39.7°F 97% 29.73 in 7.0 miles SW 9.2 mph - 0.13 in Rain Rain
6:03 AM 41.0°F 39.2°F 93% 29.71 in 6.0 miles SW 9.2 mph - N/A Rain Rain
6:23 AM 39.2°F 39.2°F 100% 29.71 in 7.0 miles SSW 10.4 mph - N/A Rain Light Rain
6:38 AM 39.2°F 39.2°F 100% 29.73 in 8.0 miles SSW 8.1 mph - N/A   Overcast
6:58 AM 39.6°F 39.4°F 99% 29.75 in 8.0 miles SSW 9.2 mph - 0.15 in Rain Light Rain
7:08 AM 39.2°F 39.2°F 100% 29.73 in 9.0 miles SSW 10.4 mph - N/A   Overcast
7:33 AM 39.2°F 39.2°F 100% 29.74 in 9.0 miles South 13.8 mph - N/A   Overcast
7:38 AM 39.2°F 37.4°F 93% 29.75 in 10.0 miles South 11.5 mph - N/A   Overcast
7:48 AM 37.4°F 37.4°F 100% 29.75 in 9.0 miles South 10.4 mph - N/A   Overcast
7:58 AM 37.9°F 37.4°F 98% 29.77 in 9.0 miles South 10.4 mph - 0.12 in   Overcast
8:03 AM 37.4°F 37.4°F 100% 29.75 in 9.0 miles South 8.1 mph - N/A   Overcast
8:08 AM 37.4°F 37.4°F 100% 29.74 in 9.0 miles South 9.2 mph - N/A Rain Light Rain
8:13 AM 37.4°F 37.4°F 100% 29.75 in 10.0 miles SSE 9.2 mph - N/A Rain Light Rain
8:31 AM 37.4°F 37.4°F 100% 29.76 in 10.0 miles South 11.5 mph - N/A Rain Light Rain
8:36 AM 37.4°F 35.6°F 93% 29.76 in 10.0 miles South 11.5 mph - N/A Rain Light Rain
8:58 AM 36.5°F 36.1°F 99% 29.78 in 10.0 miles South 11.5 mph - 0.04 in Rain Light Rain
9:19 AM 35.6°F 35.6°F 100% 29.76 in 10.0 miles South 13.8 mph - N/A   Mostly Cloudy
9:45 AM 37.4°F 37.4°F 100% 29.75 in 10.0 miles South 13.8 mph - N/A   Mostly Cloudy
9:58 AM 37.2°F 37.0°F 99% 29.78 in 10.0 miles South 15.0 mph - 0.00 in   Mostly Cloudy
10:58 AM 38.8°F 38.7°F 99% 29.80 in 10.0 miles South 11.5 mph - N/A   Overcast
11:18 AM 39.2°F 39.2°F 100% 29.78 in 10.0 miles SSW 16.1 mph - N/A   Overcast
11:33 AM 39.2°F 39.2°F 100% 29.78 in 10.0 miles SSW 11.5 mph - N/A   Mostly Cloudy
11:58 AM 40.1°F 39.0°F 96% 29.80 in 10.0 miles SSW 12.7 mph - N/A   Mostly Cloudy
12:58 PM 40.1°F 38.5°F 94% 29.81 in 10.0 miles South 16.1 mph - 0.01 in   Scattered Clouds
1:28 PM 39.2°F 39.2°F 100% 29.81 in 10.0 miles SSW 12.7 mph - N/A   Mostly Cloudy
1:58 PM 40.3°F 38.1°F 92% 29.83 in 10.0 miles SSW 15.0 mph - N/A   Mostly Cloudy
2:13 PM 41.0°F 39.2°F 93% 29.82 in 10.0 miles SSW 12.7 mph - N/A   Mostly Cloudy
2:23 PM 41.0°F 39.2°F 93% 29.82 in 10.0 miles SSW 16.1 mph - N/A   Mostly Cloudy
2:33 PM 41.0°F 39.2°F 93% 29.82 in 10.0 miles SSW 13.8 mph - N/A   Mostly Cloudy
2:43 PM 41.0°F 37.4°F 87% 29.83 in 10.0 miles SSW 12.7 mph - N/A   Scattered Clouds
2:58 PM 40.3°F 37.6°F 90% 29.85 in 10.0 miles South 15.0 mph - N/A   Partly Cloudy
3:58 PM 39.2°F 36.9°F 91% 29.88 in 10.0 miles SSW 13.8 mph - N/A   Clear
4:58 PM 38.5°F 36.5°F 93% 29.90 in 10.0 miles South 10.4 mph - N/A   Scattered Clouds
5:00 PM 39.2°F 37.4°F 93% 29.89 in 10.0 miles SSW 11.5 mph - N/A   Scattered Clouds
5:05 PM 39.2°F 37.4°F 93% 29.89 in 8.0 miles SSW 10.4 mph - N/A   Mostly Cloudy
5:10 PM 39.2°F 37.4°F 93% 29.89 in 8.0 miles South 10.4 mph - N/A Rain Light Rain
5:15 PM 39.2°F 37.4°F 93% 29.89 in 9.0 miles South 10.4 mph - N/A Rain Light Rain
5:33 PM 37.4°F 37.4°F 100% 29.89 in 10.0 miles South 11.5 mph - N/A   Overcast
5:43 PM 37.4°F 35.6°F 93% 29.89 in 10.0 miles South 12.7 mph - N/A   Mostly Cloudy
5:58 PM 36.7°F 36.0°F 97% 29.91 in 10.0 miles South 12.7 mph - 0.01 in   Partly Cloudy
6:58 PM 35.8°F 34.3°F 94% 29.92 in 10.0 miles South 10.4 mph - N/A   Clear
7:58 PM 35.2°F 33.8°F 94% 29.93 in 10.0 miles South 9.2 mph - N/A   Clear
8:58 PM 33.3°F 32.7°F 98% 29.95 in 10.0 miles SSE 3.5 mph - N/A   Clear
9:58 PM 34.2°F 33.3°F 97% 29.95 in 10.0 miles SSW 9.2 mph - N/A   Scattered Clouds
10:58 PM 32.7°F 32.2°F 98% 29.96 in 10.0 miles South 9.2 mph - N/A   Scattered Clouds
11:58 PM 32.0°F 31.5°F 98% 29.96 in 10.0 miles South 2.3 mph - N/A   Clear
Moon Phase
Jan. 09 Jan. 11 Jan. 18 Jan. 26 Feb. 03
Sunrise:07:54 AM (PST) Moon Rise:05:40 AM (PST)1/9
Sunset:04:40 PM (PST) Moon Set:02:47 PM (PST)1/9

Copyright © 2014 The Weather Underground, Inc.